Other Surface Observations
Issued by NWS Tucson, AZ

Home | Current Version | Previous Version | Text Only | Print | Product List | Glossary On
Versions: 1 2 3 4 5 6 7 8 9 10 11 12 13 14 15 16 17 18 19 20 21 22 23 24 25 26 27 28 29 30 31 32 33 34 35 36 37 38 39 40 41 42 43 44 45 46 47 48 49 50
000
SXUS55 KTWC 210515
OSOTWC

WEATHER ROUNDUP FOR SOUTHEAST ARIZONA
NATIONAL WEATHER SERVICE TUCSON AZ
1015 PM MST FRI JAN 20 2017

AZZ504>506-514-210615-
LOCATION       SKY/WX    TMP DP  RH WIND       PRES   REMARKS
TUCSON         CLOUDY    52  42  69 S28G38    29.63F
DAVIS-MONTHAN  MOCLDY    51  40  68 S13       29.63F
CHILDRENS PARK N/A      N/A N/A  71 S8                PIMA CO DEQ
ALVERNON/22ND  N/A       51 N/A N/A S9                PIMA CO DEQ
CHERRY/GLENN   N/A      N/A N/A N/A N/A               PIMA CO DEQ
TANGERINE      N/A       49 N/A N/A S15               PIMA CO DEQ
CONTL RANCH    N/A       52  43  71 S15               PIMA CO DEQ
GRANT/1ST      N/A       51  42  72 S5                PIMA CO DEQ
CRAYCROFT/22ND N/A       50  42  74 SW13              PIMA CO DEQ
GOLFLINKS/KOLB N/A       50  42  74 SW12              PIMA CO DEQ
AJO/12TH       N/A       52  40  64 S18               PIMA CO DEQ
FAIRGROUNDS    N/A       49 N/A N/A SW15              PIMA CO DEQ
SAGUARO        N/A       47  44  88 NE3               *SABINO CYN
SAN CARLOS     N/A       44  44  99 S5                *SAN CARLOS
GREEN VALLEY   N/A       46  41  84 S17               PIMA CO DEQ
HORSE CAMP CYN NOT AVBL
RINCON MTNS    N/A       28  28  99 SW7G19            *NR MANNING CAMP
$$

AZZ509>511-210615-
LOCATION       SKY/WX    TMP DP  RH WIND       PRES   REMARKS
SAFFORD        CLOUDY    46  42  86 SE16G23   29.59F
STRAY HORSE    N/A       28  28  100 N/A              *
TRAIL CABIN    N/A       34  33  95 S3G11             *N OF GRANVILLE
BLACK HILLS    NOT AVBL
DRY LAKE       N/A       30  30  100 S10G18           *NATANES MTNS
NOON CREEK     N/A       40  35  81 SW11G18           *PINALENO MTNS
COLUMBINE      NOT AVBL
GUTHRIE        N/A       35  35  99 SW23G39           *SW OF GUTHRIE
$$

AZZ502-503-513-210615-
LOCATION       SKY/WX    TMP DP  RH WIND       PRES   REMARKS
NOGALES        LGT RAIN  44  40  85 S13       29.68F
SELLS          N/A       51  44  77 S17G26            *
SASABE         N/A       46  44  93 S15G24            *ALTAR VLY
HOPKINS        N/A       32  32  99 W16G31            *SANTA RITA MTNS
CARR CYN       N/A       39  34  81 S8G41             *W OF HEREFORD
$$

AZZ507-508-512-210615-
LOCATION       SKY/WX    TMP DP  RH WIND       PRES   REMARKS
SIERRA VISTA   LGT RAIN  43  37  78 SW17G29   29.68F
DOUGLAS        CLOUDY    45  39  79 S8        29.72S
EMPIRE MTNS    NOT AVBL
MULESHOE RANCH N/A       41  39  94 S8G17             *PRESERVE
HEADQUARTERS   N/A       40  36  85 SW10G31           *CHIRICAHUA MTNS
$$

.............................NOTES.............................
THIS IS AN AUTOMATED COLLECTIVE WITH MINIMAL QUALITY CONTROL.
PIMA CO DEQ SITES HAVE NONSTANDARD WIND SENSOR HEIGHTS.
PIMA CO DEQ SITES DO NOT REPORT WIND GUSTS.
* INDICATES WIND SENSORS LOCATED AT 20 FEET INSTEAD OF 33 FEET.
..............................KEY..............................
SKY/WX - SKY CONDITION/WEATHER
TMP    - TEMPERATURE IN FAHRENHEIT
DP     - DEWPOINT IN FAHRENHEIT
RH     - RELATIVE HUMIDITY IN PERCENT
WIND   - DIRECTION AND SPEED IN MILES PER HOUR (MPH)
VRB    - VARIABLE WIND DIRECTION
PRES   - MEAN SEA LEVEL PRESSURE IN INCHES OF MERCURY
         F - FALLING PRESSURE   R - RISING PRESSURE
         S - STEADY PRESSURE
VSB    - VISIBILITY IN MILES
HX     - HEAT INDEX IN FAHRENHEIT
WCI    - WIND CHILL INDEX IN FAHRENHEIT
N/A    - NOT AVAILABLE
AFB    - AIR FORCE BASE
         DAVIS-MONTHAN IS DAVIS-MONTHAN AIR FORCE BASE
CYN    - CANYON
MTNS   - MOUNTAINS
NCA    - NATIONAL CONSERVATION AREA
NR     - NEAR
VLY    - VALLEY
CONTL  - CONTINENTAL
PIMA CO DEQ - PIMA COUNTY DEPT OF ENVIRONMENTAL QUALITY



USA.gov is the U.S. government's official web portal to all federal, state and local government web resources and services.